This is the latest recevied weather packets stored in our database for station/object SR3WXA. If no packets are shown the sender has not sent any weather packets the latest 10 day(s).
| Time | Temp. | Humidity | Pressure | Rain* | Wind** | Luminosity | Snow |
|---|---|---|---|---|---|---|---|
| 1777876129 | 18.33° C | 56% | 1013.1 hPa | 0 mm | - | 236 W/m² | - |
| 1777875829 | 17.78° C | 57% | 1012.9 hPa | 0 mm | - | 216 W/m² | - |
| 1777875529 | 17.22° C | 57% | 1013.1 hPa | 0 mm | - | 272 W/m² | - |
| 1777875229 | 17.22° C | 57% | 1013.2 hPa | 0 mm | - | 149 W/m² | - |
| 1777874930 | 17.22° C | 57% | 1013.1 hPa | 0 mm | - | 244 W/m² | - |
| 1777874629 | 16.67° C | 57% | 1012.7 hPa | 0 mm | - | 151 W/m² | - |
| 1777874360 | 16.67° C | 57% | 1012.6 hPa | 0 mm | - | 127 W/m² | - |
| 1777874329 | 16.67° C | 57% | 1012.6 hPa | 0 mm | - | 127 W/m² | - |
| 1777874029 | 16.67° C | 58% | 1012.6 hPa | 0 mm | - | 188 W/m² | - |
| 1777873729 | 16.11° C | 59% | 1012.6 hPa | 0 mm | - | 156 W/m² | - |
| 1777873461 | 16.11° C | 59% | 1012.7 hPa | 0 mm | - | 146 W/m² | - |
| 1777873429 | 16.11° C | 59% | 1012.7 hPa | 0 mm | - | 146 W/m² | - |
| 1777873129 | 15.56° C | 59% | 1012.7 hPa | 0 mm | - | 183 W/m² | - |
| 1777872872 | 15.56° C | 60% | 1012.8 hPa | 0 mm | - | 146 W/m² | - |
| 1777872829 | 15.56° C | 60% | 1012.8 hPa | 0 mm | - | 146 W/m² | - |
| 1777872534 | 15.56° C | 60% | 1012.8 hPa | 0 mm | - | 107 W/m² | - |
| 1777872229 | 15.56° C | 60% | 1012.8 hPa | 0 mm | - | 104 W/m² | - |
| 1777871663 | 15.56° C | 59% | 1012.9 hPa | 0 mm | - | 116 W/m² | - |
| 1777871632 | 15.56° C | 59% | 1012.9 hPa | 0 mm | - | 116 W/m² | - |
| 1777871331 | 15° C | 59% | 1012.8 hPa | 0 mm | - | 142 W/m² | - |
| 1777871033 | 15° C | 59% | 1012.9 hPa | 0 mm | - | 107 W/m² | - |
| 1777870731 | 15° C | 60% | 1012.9 hPa | 0 mm | - | 127 W/m² | - |
| 1777870430 | 15° C | 60% | 1012.8 hPa | 0 mm | - | 91 W/m² | - |
| 1777870130 | 15° C | 60% | 1012.7 hPa | 0 mm | - | 76 W/m² | - |
| 1777869833 | 15° C | 60% | 1012.6 hPa | 0 mm | - | 62 W/m² | - |
* Rain latest hour (hover to see other rain measurements)
** Current wind speed in m/s (hover to see current wind gust speed)